Regional Weather Roundup
Issued by NWS Mobile, AL

Home | Current Version | Previous Version | Text Only | Print | Product List | Glossary On
Versions: 1 2 3 4 5 6 7 8 9 10 11 12 13 14 15 16 17 18 19 20 21 22 23 24 25 26 27 28
000
ASUS44 KMOB 210812
RWRMOB
REGIONAL WEATHER ROUNDUP
NATIONAL WEATHER SERVICE MOBILE AL
200 AM CST WED FEB 21 2018

NOTE: "FAIR" INDICATES FEW OR NO CLOUDS BELOW 12,000 FEET WITH NO
      SIGNIFICANT WEATHER AND/OR OBSTRUCTIONS TO VISIBILITY.

  * THESE STATIONS ARE PART OF THE UNIVERSITY OF SOUTH ALABAMA
    MESONET AND ARE NOT UNDER NWS OR FAA QUALITY CONTROL.

ALZ061>064-210900-
COASTAL ALABAMA

CITY           SKY/WX    TMP DP  RH WIND       PRES   REMARKS
MOBILE REG APT CLOUDY    72  70  93 SE8       30.26F
BROOKLEY FIELD CLOUDY    70  70 100 SE8       30.26F
USA CAMPUS*    NOT AVBL
DOG RIVER*     NOT AVBL


CITY           SKY/WX    TMP DP  RH WIND       PRES   REMARKS
GULF SHORES    FAIR      70  70 100 MISG      30.25F

$$

ALZ051>060-210900-
INTERIOR SOUTHWEST AND SOUTH CENTRAL ALABAMA

CITY           SKY/WX    TMP DP  RH WIND       PRES   REMARKS
GREENVILLE     CLOUDY    68  64  87 SE3       30.29F
EVERGREEN      CLOUDY    71  66  84 SE5       30.29F
ATMORE*          N/A    N/A N/A N/A SE7       31.07S
ANDALUSIA/OPP  MOCLDY    67  64  90 E5        30.29F
ANDALUSIA*       N/A     66  66 100 SE3       30.30F
FLORALA APT    NOT AVBL
FLORALA*         N/A     66  64  94 CALM      31.07F

$$

FLZ001>006-210900-
WESTERN FLORIDA PANHANDLE

CITY           SKY/WX    TMP DP  RH WIND       PRES   REMARKS
PENSACOLA      CLOUDY    71  69  93 SE8       30.27F FOG
NAS PENSACOLA  FOG       71  69  93 MISG      30.26F VSB 1
MILTON         MOCLDY    69  68  96 SE5       30.28S
WHTNG S FIELD  MOCLDY    70  69  97 SE5       30.28S


CITY           SKY/WX    TMP DP  RH WIND       PRES   REMARKS
JAY*           NOT AVBL
DUKE FIELD     FAIR      69  67  92 SE7       30.28F
CRESTVIEW      CLOUDY    68  65  90 SE5       30.30F
VALPARAISO     MOCLDY    70  67  90 SE7       30.28F
DESTIN         FAIR      72  66  81 E8        30.28F

$$

MSZ076-079-210900-
INTERIOR SOUTHEAST MISSISSIPPI

CITY           SKY/WX    TMP DP  RH WIND       PRES   REMARKS
LEAKESVILLE*     N/A     70  70 100 SE5       30.25F
AGRICOLA*        N/A     72  70  94 CALM      30.23F

$$

MARINE OBSERVATIONS

STATION/POSITION TIME  TEMP    WIND        PRES    WAVE
                       AIR SEA DIR/SP/G            HT/PER
                 (UTC) (F)     (DEG/KT/KT) (MB)    (FT/S)
PETIT BOIS ISLND 0742   70     130/ 12/ 15 1024.6F
KATRINA CUT      0730          130/ 13     1024.4R
CEDAR POINT      0730   69     140/ 10     1024.4F
E DAUPHIN ISLAND 0800   70     120/ 14/ 15 1023.9F
MIDDLE BAY LIGHT 0730   68     120/ 12     1024.4S
USCG MOBILE BAY  0742   68 65  150/  3/  6 1024.6F
STATE DOCKS      0742   69 61              1024.5F
MEAHER PARK      0730   72     130/  9     1024.0F
WEEKS BAY        0645   72                 1024.0S
FORT MORGAN      0742   70     140/ 17/ 19   N/A
12 S ORANGE BCH  NOT AVBL
PENSACOLA BAY    0742   71 71  130/  1/  4 1025.3F
64 S DAUPHIN ISL 0750      73  120/ 12/ 14 1023.7F   5/ 8
67 S FORT MORGAN 0730   74                 1023.7F

$$

SELECTED LOCATIONS ACROSS THE REGION

CITY           SKY/WX    TMP DP  RH WIND       PRES   REMARKS
NEW ORLEANS    FAIR      72  72 100 SE8       30.18S
GULFPORT       FOG       71  71 100 SE12      30.21F VSB 1/2
PASCAGOULA AP  CLOUDY    72  70  93 SE13      30.23F FOG
PASCAGOULA*      N/A     52  52 100 SE8         N/A
HATTIESBURG    LGT RAIN  70  70 100 S3        30.23F
LAUREL         FAIR      69  68  96 SE7       30.23F
MERIDIAN       CLOUDY    72  68  87 S13       30.24R
JACKSON        FAIR      68  67  96 S10       30.18S
MONTGOMERY     FAIR      66  66 100 SE3       30.31S
TROY           MOCLDY    67  65  93 SE5       30.32S
ASHFORD*         N/A     66  66 100 SE3       30.30F
DOTHAN         FAIR      68  65  90 SE6       30.36S
PANAMA CITY    MOCLDY    68  65  90 E7        30.30S

$$





USA.gov is the U.S. government's official web portal to all federal, state and local government web resources and services.